Location: Avon Lake
(41.5219°N, 93.5010°W)
Time: 05:15:55
(UTC+00:00)

BlueWalker 3 - Visible Passes

Search period start: 02 December 2022 00:00
Search period end: 12 December 2022 00:00
Orbit: 500 x 519 km, 53.2° (Epoch: 01 December)

Date Brightness Start Highest point End Pass type
(mag) Time Alt. Az. Time Alt. Az. Time Alt. Az.
02 Dec 4.1 00:15:56 10° NW 00:18:11 15° N 00:18:55 14° N visible
02 Dec 4.1 23:57:36 10° NW 23:59:51 15° N 00:01:16 13° NNE visible
03 Dec 4.1 23:39:15 10° NW 23:41:31 15° N 23:43:38 10° NNE visible
04 Dec 4.8 01:18:07 10° NNW 01:18:28 12° NNW 01:18:28 12° NNW visible
04 Dec 4.1 23:20:54 10° NW 23:23:10 15° N 23:25:26 10° NE visible
05 Dec 4.3 00:59:43 10° NW 01:00:52 16° NNW 01:00:52 16° NNW visible
06 Dec 3.7 00:41:18 10° NW 00:43:19 21° N 00:43:19 21° N visible
07 Dec 3.3 00:22:53 10° NW 00:25:51 25° NNE 00:25:51 25° NNE visible
08 Dec 3.0 00:04:27 10° NW 00:07:49 27° NNE 00:08:29 25° NE visible
08 Dec 5.0 01:42:52 10° WNW 01:43:20 13° WNW 01:43:20 13° WNW visible
08 Dec 3.0 23:46:01 10° NW 23:49:26 28° NNE 23:51:15 19° ENE visible
09 Dec 4.2 01:24:29 10° WNW 01:26:07 23° WNW 01:26:07 23° WNW visible
09 Dec 3.0 23:27:34 10° NW 23:31:02 29° NNE 23:34:12 11° E visible
10 Dec 3.1 01:06:04 10° WNW 01:09:04 43° W 01:09:04 43° W visible
11 Dec 2.8 00:47:39 10° WNW 00:51:25 48° SW 00:52:20 39° S visible
